Weather History for KLBT - December, 2013

Change the Weather History Date:

Thursday, December 5, 2013

  Actual Average Record
Temperature  
Mean Temperature 62 °F 49 °F  
Max Temperature 73 °F 60 °F 77 °F (1998)
Min Temperature 50 °F 37 °F 21 °F (2000)
Degree Days  
Heating Degree Days 3 16  
Month to date heating degree days 57 79  
Since 1 July heating degree days 573 545  
Cooling Degree Days 0 0  
Month to date cooling degree days 0 0  
Year to date cooling degree days 1861 1907  
Growing Degree Days 12 (Base 50)    
Moisture  
Dew Point 58 °F    
Average Humidity 87    
Maximum Humidity 100    
Minimum Humidity 73    
Precipitation  
Precipitation 0.00 in 0.11 in 0.22 in (2005)
Month to date precipitation 0.63 0.54  
Year to date precipitation 40.83 41.17  
Sea Level Pressure  
Sea Level Pressure 30.11 in    
Wind  
Wind Speed 4 mph (South)    
Max Wind Speed 13 mph    
Max Gust Speed 14 mph    
Visibility 5 miles    
Events Fog    
T = Trace of Precipitation, MM = Missing Value Source: NWS Daily Summary

Daily Weather History Graph

Daily Weather History Graph

Search for Another Location

Airport or City:

Trip Planner

Search our weather history database for the weather conditions in past years. The results will help you decide how hot, cold, wet, or windy it might be!

Date:

Astronomy

Dec. 05, 2013 Rise Set
Actual Time 7:08 AM EST 5:05 PM EST
Civil Twilight 6:40 AM EST 5:33 PM EST
Nautical Twilight 6:09 AM EST 6:04 PM EST
Astronomical Twilight 5:38 AM EST 6:34 PM EST
Moon 9:30 AM EST (12/5) 8:20 PM EST (12/5)
Length of Visible Light 10h 52m
Length of Day
9h 56m
Waxing Crescent, 10% of the Moon is Illuminated
Dec 5
Waxing Crescent
Dec 9
First Quarter
Dec 17
Full
Dec 25
Last Quarter
Jan 1
New

Hourly Weather History & Observations

Time (EST) Temp. Dew Point Humidity Pressure Visibility Wind Dir Wind Speed Gust Speed Precip Events Conditions
12:04 AM 54.0 °F 53.1 °F 97% 30.11 in 0.2 mi Calm Calm - N/A Fog Fog
12:14 AM 54.0 °F 53.1 °F 97% 30.11 in 0.2 mi Calm Calm - N/A Fog Fog
12:41 AM 53.1 °F 52.0 °F 96% 30.11 in 0.2 mi Calm Calm - N/A Fog Fog
12:44 AM 53.1 °F 52.0 °F 96% 30.10 in 0.2 mi Calm Calm - N/A Fog Fog
12:54 AM 53.1 °F 52.0 °F 96% 30.11 in 0.2 mi Calm Calm - N/A Fog Fog
1:54 AM 52.0 °F 51.1 °F 97% 30.10 in 0.2 mi Calm Calm - N/A Fog Fog
2:54 AM 51.1 °F 50.0 °F 96% 30.11 in 0.2 mi Calm Calm - N/A Fog Fog
3:54 AM 52.0 °F 51.1 °F 97% 30.10 in 0.2 mi Calm Calm - N/A Fog Fog
4:54 AM 54.0 °F 53.1 °F 97% 30.10 in 0.2 mi SSE 4.6 mph - N/A Fog Fog
5:54 AM 55.0 °F 55.0 °F 100% 30.11 in 0.2 mi Calm Calm - N/A Fog Fog
6:54 AM 55.9 °F 55.9 °F 100% 30.12 in 0.2 mi SSE 3.5 mph - N/A Fog Fog
7:51 AM 57.2 °F 57.2 °F 100% 30.13 in 1.2 mi SSE 3.5 mph - N/A   Overcast
7:54 AM 57.0 °F 55.9 °F 96% 30.13 in 1.2 mi SE 5.8 mph - N/A   Overcast
8:05 AM 57.9 °F 57.0 °F 97% 30.14 in 1.8 mi Calm Calm - N/A   Overcast
8:13 AM 57.9 °F 57.9 °F 100% 30.15 in 2.0 mi Calm Calm - N/A   Overcast
8:54 AM 59.0 °F 59.0 °F 100% 30.15 in 3.0 mi SSE 3.5 mph - N/A   Overcast
9:54 AM 62.1 °F 60.1 °F 93% 30.16 in 5.0 mi SW 3.5 mph - N/A   Overcast
10:54 AM 66.0 °F 60.1 °F 81% 30.16 in 10.0 mi SSW 3.5 mph - N/A   Mostly Cloudy
11:54 AM 70.0 °F 61.0 °F 73% 30.12 in 10.0 mi South 8.1 mph - N/A   Scattered Clouds
12:54 PM 68.0 °F 62.1 °F 81% 30.10 in 10.0 mi SW 5.8 mph - N/A   Overcast
1:54 PM 72.0 °F 62.1 °F 71% 30.08 in 10.0 mi SSW 4.6 mph - N/A   Overcast
2:54 PM 70.0 °F 63.0 °F 78% 30.07 in 10.0 mi SSW 6.9 mph - N/A   Overcast
3:54 PM 70.0 °F 63.0 °F 78% 30.06 in 10.0 mi SSW 5.8 mph - N/A   Mostly Cloudy
4:54 PM 69.1 °F 64.0 °F 84% 30.06 in 10.0 mi SSE 3.5 mph - N/A   Overcast
5:54 PM 66.9 °F 64.0 °F 90% 30.06 in 10.0 mi Calm Calm - N/A   Overcast
6:54 PM 66.0 °F 63.0 °F 90% 30.08 in 10.0 mi South 5.8 mph - N/A   Partly Cloudy
7:54 PM 64.9 °F 62.1 °F 90% 30.09 in 10.0 mi Calm Calm - N/A   Overcast
8:54 PM 64.9 °F 63.0 °F 93% 30.10 in 10.0 mi SSW 8.1 mph - N/A   Clear
9:54 PM 64.9 °F 62.1 °F 90% 30.09 in 10.0 mi South 3.5 mph - N/A   Clear
10:54 PM 64.9 °F 62.1 °F 90% 30.09 in 10.0 mi South 4.6 mph - N/A   Mostly Cloudy
11:54 PM 64.0 °F 62.1 °F 93% 30.09 in 10.0 mi South 5.8 mph - N/A   Scattered Clouds